Regional Weather Roundup
Issued by NWS Northern Indiana

Home | Current Version | Previous Version | Text Only | Print | Product List | Glossary Off
Versions: 1 2 3 4 5 6 7 8 9 10 11 12 13 14 15 16 17 18 19 20 21 22 23 24 25 26 27 28 29 30 31 32 33 34 35 36 37 38 39 40 41 42 43 44 45 46 47 48 49 50

000
ASUS43 KIWX 260800
RWRIWX

KIWX WEATHER ROUNDUP
NATIONAL WEATHER SERVICE NORTHERN INDIANA
400 AM EDT THU MAY 26 2016

NOTE: "FAIR" INDICATES FEW OR NO CLOUDS BELOW 12,000 FEET WITH NO
SIGNIFICANT WEATHER AND/OR OBSTRUCTIONS TO VISIBILITY.

* THESE STATIONS ARE NOT UNDER NWS QUALITY CONTROL. THEY ALSO MAY NOT
  REPORT WEATHER SUCH AS PRECIPITATION OR FOG.

INZ001>027-260900-
NORTHERN INDIANA

CITY           SKY/WX    TMP DP  RH WIND       PRES   REMARKS
SOUTH BEND     CLOUDY    67  63  87 S6        29.97F
GOSHEN         CLOUDY    67  61  81 E9        29.97F
ANGOLA*        PTCLDY    66  64  94 CALM      30.00S
FORT WAYNE     CLOUDY    69  62  78 SW7       30.00S

$$
INZ028>050-260900-
CENTRAL INDIANA

CITY           SKY/WX    TMP DP  RH WIND       PRES   REMARKS
LAFAYETTE      CLOUDY    69  64  84 SW5       29.98S
KOKOMO*        CLOUDY    70  61  73 SW12      30.00F
MUNCIE*        MOCLDY    70  61  73 SW7       30.03R
INDIANAPOLIS   CLOUDY    69  63  81 SW9       30.01S

$$
MIZ043>046-050>051-056>058-064>065-071>073-077>080-260900-
SOUTHWEST LOWER MICHIGAN

CITY           SKY/WX    TMP DP  RH WIND       PRES   REMARKS
BATTLE CREEK   CLOUDY    63  61  93 SE5       29.96F
BENTON HARBOR  CLOUDY    65  63  93 S6        29.95S
COLDWATER*     CLOUDY    64  61  88 CALM      29.98F
HILLSDALE*     CLOUDY    66  61  84 CALM      30.00F
HOLLAND        CLOUDY    65  62  90 S5        29.93S
GRAND RAPIDS   CLOUDY    66  63  90 S10       29.94F
KALAMAZOO      CLOUDY    64  61  90 S3        29.95F
STURGIS*       CLOUDY    65  63  91 SE8       29.96F
THREE RIVERS*  FAIR      66  63  90 CALM      29.97S

$$
OHZ001>008-015>018-024>025-260900-
NORTHWEST OHIO

CITY           SKY/WX    TMP DP  RH WIND       PRES   REMARKS
DEFIANCE       CLOUDY    70  62  76 CALM      30.00R
FINDLAY        CLOUDY    68  60  75 S9        30.01S
TOLEDO EXPRESS CLOUDY    69  61  75 SW7       29.99S
TOLEDO METCALF CLOUDY    70  60  70 S8        30.00S
LIMA           CLOUDY    68  61  78 S7        30.02F

$$
AND FOR LAKE MICHIGAN COASTAL AND OPEN LAKE BUOY OBSERVATIONS

STATION/POSITION TEMP    WIND        PRES    VSBY  WAVE
                 AIR SEA DIR/SP/G                  HT/PER
                 (F)     (DEG/KT/KT) (MB)    (MI)  (FT/S)
CALUMET HARBOR    67     160/  6/  8 1012.9F
MICHIGAN CITY     65     120/  7/  8   N/A
BURNS HARBOR      69     180/ 10/ 15 1014.2F
SAINT JOSEPH      65     140/  2/  5 1015.2R
SOUTH LAKE BUOY   54 49  140/ 10/ 12 1012.7          1/ 3
4 MI NW BRIDGMAN  63 61  130/  8/ 10   N/A           1
MICHIGAN CITY     62 59  140/  6/  8   N/A           1/ 3

$$
&&




USA.gov is the U.S. government's official web portal to all federal, state and local government web resources and services.